Location: Sevilla
(37.3933°N, 5.9839°W)
Time: 05:21:56
(UTC+02:00)

Transit 2A - Pass Details

Date: 29 June 2024
Orbit: 591 x 960 km, 66.7° (Epoch: 15 July)

Event Time Altitude Azimuth Distance (km) Brightness Sun altitude
Rises 14:51:12 0° 186° (S) 2,970 9.3 74.9°
Reaches altitude 10° 14:53:31 10° 178° (S) 2,111 8.7 74.7°
Maximum altitude 14:57:58 39° 110° (ESE) 1,077 7.4 74.4°
Drops below altitude 10° 15:02:55 10° 42° (NE) 2,347 8.5 73.9°
Sets 15:05:35 0° 36° (NE) 3,346 9.1 73.6°
